This demonstration page uses our WeatherBlox Daily Observations layout. Learn more.

Hourly Observations for December 12, 2019

Temp ( °F °C ) Dew Point ( °F °C ) Humidity (%) Winds ( mph kmh ) Pressure ( in mb ) Visibility ( mi km ) Precip ( " mm )
12:54 am 00:54 Clear 37 2.8 27 -2.8 67 67 S 13 20 30.04 1017 10 16.0934 0 0
1:54 am 01:54 Mostly Clear 33 0.6 26 -3.3 75 75 S 7 11 30.04 1017 10 16.0934 0 0
2:54 am 02:54 Clear 32 0 26 -3.3 79 79 S 8 13 30.03 1017 10 16.0934 0 0
3:54 am 03:54 Clear 35 1.7 29 -1.7 78 78 S 9 15 30 1016 10 16.0934 0 0
4:54 am 04:54 Clear 39 3.9 31 -0.6 73 73 SSW 13 20 29.99 1016 10 16.0934 0 0
5:54 am 05:54 Clear 39 3.9 32 0 76 76 SSW 12 19 30 1016 10 16.0934 0 0
6:54 am 06:54 Clear 36 2.2 31 -0.6 82 82 SSW 7 11 30.02 1017 10 16.0934 0 0
7:54 am 07:54 Sunny 35 1.7 31 -0.6 85 85 WSW 3 6 30.05 1018 10 16.0934 0 0
8:54 am 08:54 Sunny 36 2.2 31 -0.6 82 82 W 5 7 30.07 1018 10 16.0934 0 0
9:54 am 09:54 Sunny 37 2.8 27 -2.8 67 67 NNW 10 17 30.09 1019 10 16.0934 0 0
10:54 am 10:54 Sunny 39 3.9 27 -2.8 62 62 N 6 9 30.11 1020 10 16.0934 0 0
11:54 am 11:54 Sunny 41 5 27 -2.8 57 57 N 9 15 30.09 1019 10 16.0934 0 0
12:54 pm 12:54 Sunny 42 5.6 27 -2.8 55 55 NNW 7 11 30.06 1018 10 16.0934 0 0
1:54 pm 13:54 Sunny 42 5.6 27 -2.8 55 55 N 9 15 30.06 1018 10 16.0934 0 0
2:54 pm 14:54 Sunny 42 5.6 27 -2.8 55 55 N 7 11 30.05 1018 10 16.0934 0 0
3:54 pm 15:54 Sunny 39 3.9 26 -3.3 60 60 N 8 13 30.06 1018 10 16.0934 0 0
4:54 pm 16:54 Sunny 33 0.6 24 -4.4 70 70 NE 7 11 30.07 1018 10 16.0934 0 0
5:54 pm 17:54 Clear 28 -2.2 23 -5 81 81 NNE 7 11 30.09 1019 10 16.0934 0 0
6:54 pm 18:54 Clear 27 -2.8 22 -5.6 81 81 ENE 6 9 30.09 1019 10 16.0934 0 0
7:54 pm 19:54 Clear 24 -4.4 22 -5.6 91 91 NNE 7 11 30.09 1019 9 14.48406 0 0
8:54 pm 20:54 Clear 22 -5.6 19 -7.2 89 89 NNE 5 7 30.09 1019 9 14.48406 0 0
9:40 pm 21:40 Partly Cloudy 23 -5 20 -6.7 88 88 NE 6 9 30.12 1020 9 14.48406 0 0
9:49 pm 21:49 Mostly Cloudy 25 -4 21 -6 86 86 ENE 6 9 30.12 1020 8 12.87472 0 0
9:54 pm 21:54 Mostly Cloudy 26 -3.3 22 -5.6 84 84 ENE 8 13 30.08 1019 8 12.87472 0 0
10:21 pm 22:21 Cloudy with Mist and Fog 25 -3.9 23 -5 92 92 ENE 7 11 30.12 1020 5 8.0467 0 0
10:54 pm 22:54 Cloudy with Mist and Fog 25 -3.9 23 -5 92 92 NNE 7 11 30.07 1018 4 6.43736 0 0
11:54 pm 23:54 Cloudy with Mist and Fog 25 -3.9 23 -5 92 92 E 5 7 30.06 1018 5 8.0467 0 0

Powered by AerisWeather